Location: Gleizolles
(44.4833°N, 6.7667°E)
Time: 00:26:12
(UTC+00:00)

Vanguard 2 Rocket - Pass Details

Date: 16 June 2024
Orbit: 555 x 3302 km, 32.9° (Epoch: 24 July)

Event Time Altitude Azimuth Distance (km) Brightness Sun altitude
Rises 00:03:31 0° 179° (S) 7,052 - -21.8°
Reaches altitude 10° 00:12:56 10° 156° (SSE) 6,243 - -21.6°
Exits shadow 00:13:56 11° 153° (SSE) 6,183 10.7 -21.5°
Maximum altitude 00:19:53 13° 135° (SE) 5,964 10.7 -21.3°
Drops below altitude 10° 00:26:35 10° 114° (ESE) 6,035 10.9 -21.1°
Sets 00:35:01 0° 91° (E) 6,622 11.5 -20.7°
